Location: Maiden
(35.5760°N, 81.2120°W)
Time: 02:37:20
(UTC-04:00)

A-11 Canister half - Pass Details

Date: 11 August 2020
Orbit: 1527 x 1682 km, 47.3° (Epoch: 25 September)

Event Time Altitude Azimuth Distance (km) Brightness Sun altitude
Rises 14:22:51 0° 265° (W) 4,914 11.8 66.2°
Reaches altitude 10° 14:26:11 10° 271° (W) 3,936 11.5 65.8°
Maximum altitude 14:35:56 49° 344° (NNW) 2,078 10.3 64.6°
Drops below altitude 10° 14:45:39 10° 58° (ENE) 3,920 11.0 63.3°
Sets 14:48:59 0° 64° (ENE) 4,893 11.4 62.8°
